Time,TemperatureF,DewpointF,PressureIn,WindDirection,WindDirectionDegrees,WindSpeedMPH,WindSpeedGustMPH,Humidity,HourlyPrecipIn,Conditions,Clouds,dailyrainin,SoftwareType,DateUTC
2013-08-26 00:13:00,60.7,58.0,30.30,NNW,340,0.0,0.0,92,0.00,,,0.00,weatherlink.com 1.10,2013-08-26 04:13:00,
2013-08-26 00:28:00,60.5,59.0,30.29,NNW,340,0.0,0.0,93,0.00,,,0.00,weatherlink.com 1.10,2013-08-26 04:28:00,
2013-08-26 00:43:00,60.2,58.0,30.29,NNW,340,0.0,0.0,93,0.00,,,0.00,weatherlink.com 1.10,2013-08-26 04:43:00,
2013-08-26 00:58:00,59.9,58.0,30.29,NNW,340,0.0,0.0,93,0.00,,,0.00,weatherlink.com 1.10,2013-08-26 04:58:00,
2013-08-26 01:13:00,59.8,58.0,30.30,NNW,340,0.0,0.0,94,0.00,,,0.00,weatherlink.com 1.10,2013-08-26 05:13:00,
2013-08-26 01:28:00,59.5,58.0,30.29,NNW,340,0.0,0.0,94,0.00,,,0.00,weatherlink.com 1.10,2013-08-26 05:28:00,
2013-08-26 01:43:00,59.3,58.0,30.28,NNW,340,0.0,0.0,94,0.00,,,0.00,weatherlink.com 1.10,2013-08-26 05:43:00,
2013-08-26 01:58:00,59.0,57.0,30.29,NNW,340,0.0,0.0,94,0.00,,,0.00,weatherlink.com 1.10,2013-08-26 05:58:00,
2013-08-26 02:13:00,58.7,57.0,30.29,NNW,340,0.0,0.0,95,0.00,,,0.00,weatherlink.com 1.10,2013-08-26 06:13:00,
2013-08-26 02:28:00,58.4,57.0,30.28,NNW,340,0.0,0.0,95,0.00,,,0.00,weatherlink.com 1.10,2013-08-26 06:28:00,
2013-08-26 02:43:00,58.3,57.0,30.28,NNW,340,0.0,0.0,95,0.00,,,0.00,weatherlink.com 1.10,2013-08-26 06:43:00,
2013-08-26 02:58:00,58.1,57.0,30.28,NNW,340,0.0,0.0,95,0.00,,,0.00,weatherlink.com 1.10,2013-08-26 06:58:00,
2013-08-26 03:13:00,57.8,56.0,30.27,NNW,340,0.0,0.0,95,0.00,,,0.00,weatherlink.com 1.10,2013-08-26 07:13:00,
2013-08-26 03:28:00,57.8,57.0,30.27,NNW,340,0.0,0.0,96,0.00,,,0.00,weatherlink.com 1.10,2013-08-26 07:28:00,
2013-08-26 03:43:00,57.5,56.0,30.27,NNW,340,0.0,0.0,96,0.00,,,0.00,weatherlink.com 1.10,2013-08-26 07:43:00,
2013-08-26 03:58:00,57.3,56.0,30.27,NNW,340,0.0,0.0,96,0.00,,,0.00,weatherlink.com 1.10,2013-08-26 07:58:00,
2013-08-26 04:13:00,57.2,56.0,30.26,NNW,340,0.0,0.0,96,0.00,,,0.00,weatherlink.com 1.10,2013-08-26 08:13:00,
2013-08-26 04:28:00,56.9,56.0,30.27,NNW,340,0.0,0.0,96,0.00,,,0.00,weatherlink.com 1.10,2013-08-26 08:28:00,
2013-08-26 04:43:00,56.7,56.0,30.27,NNW,340,0.0,0.0,96,0.00,,,0.00,weatherlink.com 1.10,2013-08-26 08:43:00,
2013-08-26 04:58:00,56.7,56.0,30.26,NNW,340,0.0,0.0,96,0.00,,,0.00,weatherlink.com 1.10,2013-08-26 08:58:00,
2013-08-26 05:13:00,56.5,55.0,30.26,NNW,340,0.0,0.0,96,0.00,,,0.00,weatherlink.com 1.10,2013-08-26 09:13:00,
2013-08-26 05:28:00,56.3,55.0,30.25,NNW,340,0.0,0.0,96,0.00,,,0.00,weatherlink.com 1.10,2013-08-26 09:28:00,
2013-08-26 05:43:00,56.0,55.0,30.25,NNW,340,0.0,0.0,96,0.00,,,0.00,weatherlink.com 1.10,2013-08-26 09:43:00,
2013-08-26 05:58:00,56.0,55.0,30.25,NNW,340,0.0,0.0,96,0.00,,,0.00,weatherlink.com 1.10,2013-08-26 09:58:00,
2013-08-26 06:13:00,55.9,55.0,30.24,NNW,340,0.0,0.0,97,0.00,,,0.00,weatherlink.com 1.10,2013-08-26 10:13:00,
2013-08-26 06:28:00,55.7,55.0,30.25,NNW,340,0.0,0.0,97,0.00,,,0.00,weatherlink.com 1.10,2013-08-26 10:28:00,
2013-08-26 06:43:00,55.6,55.0,30.25,NNW,340,0.0,0.0,97,0.00,,,0.00,weatherlink.com 1.10,2013-08-26 10:43:00,
2013-08-26 06:58:00,55.4,55.0,30.25,NNW,340,0.0,0.0,97,0.00,,,0.00,weatherlink.com 1.10,2013-08-26 10:58:00,
2013-08-26 07:13:00,55.1,54.0,30.26,NNW,340,0.0,0.0,97,0.00,,,0.00,weatherlink.com 1.10,2013-08-26 11:13:00,
2013-08-26 07:28:00,55.3,55.0,30.26,NNW,340,0.0,0.0,97,0.00,,,0.00,weatherlink.com 1.10,2013-08-26 11:28:00,
2013-08-26 07:43:00,56.0,56.0,30.27,NNW,340,0.0,0.0,98,0.00,,,0.00,weatherlink.com 1.10,2013-08-26 11:43:00,
2013-08-26 07:58:00,57.0,57.0,30.27,NNW,340,0.0,0.0,99,0.00,,,0.00,weatherlink.com 1.10,2013-08-26 11:58:00,
2013-08-26 08:13:00,58.0,58.0,30.27,NNW,340,0.0,0.0,99,0.00,,,0.00,weatherlink.com 1.10,2013-08-26 12:13:00,
2013-08-26 08:28:00,59.0,59.0,30.27,NNW,340,0.0,0.0,99,0.00,,,0.00,weatherlink.com 1.10,2013-08-26 12:28:00,
2013-08-26 08:43:00,60.4,60.0,30.27,NNW,340,0.0,0.0,99,0.00,,,0.00,weatherlink.com 1.10,2013-08-26 12:43:00,
2013-08-26 08:58:00,61.5,61.0,30.27,NNW,340,0.0,0.0,99,0.00,,,0.00,weatherlink.com 1.10,2013-08-26 12:58:00,
2013-08-26 09:13:00,62.3,62.0,30.28,NNW,340,0.0,0.0,99,0.00,,,0.00,weatherlink.com 1.10,2013-08-26 13:13:00,
2013-08-26 09:29:00,62.9,62.0,30.28,NNW,340,0.0,0.0,98,0.00,,,0.00,weatherlink.com 1.10,2013-08-26 13:29:00,
2013-08-26 09:44:00,64.7,59.0,30.28,NNW,340,0.0,1.0,83,0.00,,,0.00,weatherlink.com 1.10,2013-08-26 13:44:00,
2013-08-26 09:59:00,66.4,58.0,30.28,NNW,338,0.0,1.0,75,0.00,,,0.00,weatherlink.com 1.10,2013-08-26 13:59:00,
2013-08-26 10:14:00,67.9,59.0,30.28,NNW,338,0.0,0.0,73,0.00,,,0.00,weatherlink.com 1.10,2013-08-26 14:14:00,
2013-08-26 10:29:00,68.9,58.0,30.28,NNW,334,0.0,0.0,68,0.00,,,0.00,weatherlink.com 1.10,2013-08-26 14:29:00,
2013-08-26 10:44:00,70.1,59.0,30.28,North,9,0.0,1.0,67,0.00,,,0.00,weatherlink.com 1.10,2013-08-26 14:44:00,
2013-08-26 10:59:00,71.1,58.0,30.28,ENE,63,0.0,1.0,64,0.00,,,0.00,weatherlink.com 1.10,2013-08-26 14:59:00,
2013-08-26 11:14:00,71.8,57.0,30.28,NNW,344,0.0,2.0,61,0.00,,,0.00,weatherlink.com 1.10,2013-08-26 15:14:00,
2013-08-26 11:29:00,72.5,60.0,30.27,NNW,344,0.0,0.0,65,0.00,,,0.00,weatherlink.com 1.10,2013-08-26 15:29:00,
2013-08-26 11:44:00,73.7,59.0,30.27,SW,224,0.0,2.0,61,0.00,,,0.00,weatherlink.com 1.10,2013-08-26 15:44:00,
2013-08-26 11:59:00,74.4,59.0,30.26,South,176,1.0,3.0,58,0.00,,,0.00,weatherlink.com 1.10,2013-08-26 15:59:00,
2013-08-26 12:14:00,75.3,60.0,30.26,South,176,0.0,1.0,59,0.00,,,0.00,weatherlink.com 1.10,2013-08-26 16:14:00,
2013-08-26 12:29:00,76.3,59.0,30.25,South,188,2.0,2.0,56,0.00,,,0.00,weatherlink.com 1.10,2013-08-26 16:29:00,
2013-08-26 12:44:00,77.2,59.0,30.24,West,271,0.0,2.0,54,0.00,,,0.00,weatherlink.com 1.10,2013-08-26 16:44:00,
2013-08-26 12:59:00,78.1,60.0,30.24,South,191,1.0,3.0,54,0.00,,,0.00,weatherlink.com 1.10,2013-08-26 16:59:00,
2013-08-26 13:14:00,78.8,59.0,30.23,SSE,163,0.0,4.0,50,0.00,,,0.00,weatherlink.com 1.10,2013-08-26 17:14:00,
2013-08-26 13:44:00,80.3,60.0,30.22,ESE,119,1.0,3.0,50,0.00,,,0.00,weatherlink.com 1.10,2013-08-26 17:44:00,
2013-08-26 13:59:00,80.7,60.0,30.22,NE,51,0.0,1.0,49,0.00,,,0.00,weatherlink.com 1.10,2013-08-26 17:59:00,
2013-08-26 14:14:00,82.6,61.0,30.20,South,180,0.0,1.0,48,0.00,,,0.00,weatherlink.com 1.10,2013-08-26 18:14:00,
2013-08-26 14:29:00,81.8,60.0,30.20,SSE,157,1.0,4.0,47,0.00,,,0.00,weatherlink.com 1.10,2013-08-26 18:29:00,
2013-08-26 14:44:00,81.2,60.0,30.19,SSW,208,0.0,3.0,48,0.00,,,0.00,weatherlink.com 1.10,2013-08-26 18:44:00,
2013-08-26 14:59:00,80.1,62.0,30.18,SSW,208,0.0,0.0,55,0.00,,,0.00,weatherlink.com 1.10,2013-08-26 18:59:00,
2013-08-26 15:14:00,79.6,62.0,30.18,SSW,208,0.0,1.0,55,0.00,,,0.00,weatherlink.com 1.10,2013-08-26 19:14:00,
2013-08-26 15:29:00,80.3,60.0,30.17,SSE,158,0.0,1.0,51,0.00,,,0.00,weatherlink.com 1.10,2013-08-26 19:29:00,
2013-08-26 15:44:00,80.5,60.0,30.17,SSE,159,0.0,2.0,49,0.00,,,0.00,weatherlink.com 1.10,2013-08-26 19:44:00,
2013-08-26 15:59:00,79.4,61.0,30.16,SSE,159,0.0,0.0,54,0.00,,,0.00,weatherlink.com 1.10,2013-08-26 19:59:00,
2013-08-26 16:14:00,79.2,59.0,30.15,ESE,123,0.0,2.0,51,0.00,,,0.00,weatherlink.com 1.10,2013-08-26 20:14:00,
2013-08-26 16:29:00,79.8,59.0,30.14,South,170,0.0,3.0,49,0.00,,,0.00,weatherlink.com 1.10,2013-08-26 20:29:00,
2013-08-26 16:45:00,80.5,59.0,30.14,South,170,0.0,1.0,48,0.00,,,0.00,weatherlink.com 1.10,2013-08-26 20:45:00,
2013-08-26 17:00:00,80.9,60.0,30.14,South,170,0.0,2.0,50,0.00,,,0.00,weatherlink.com 1.10,2013-08-26 21:00:00,
2013-08-26 17:15:00,80.7,61.0,30.14,SSW,209,0.0,2.0,51,0.00,,,0.00,weatherlink.com 1.10,2013-08-26 21:15:00,
2013-08-26 17:30:00,80.1,61.0,30.12,South,186,0.0,1.0,53,0.00,,,0.00,weatherlink.com 1.10,2013-08-26 21:30:00,
2013-08-26 17:45:00,80.1,60.0,30.12,South,182,0.0,1.0,51,0.00,,,0.00,weatherlink.com 1.10,2013-08-26 21:45:00,
2013-08-26 18:00:00,79.6,62.0,30.12,South,182,0.0,0.0,55,0.00,,,0.00,weatherlink.com 1.10,2013-08-26 22:00:00,
2013-08-26 18:15:00,79.0,61.0,30.11,South,182,0.0,0.0,55,0.00,,,0.00,weatherlink.com 1.10,2013-08-26 22:15:00,
2013-08-26 18:30:00,78.8,63.0,30.12,South,182,0.0,0.0,58,0.00,,,0.00,weatherlink.com 1.10,2013-08-26 22:30:00,
2013-08-26 18:45:00,78.3,63.0,30.11,South,183,0.0,0.0,59,0.00,,,0.00,weatherlink.com 1.10,2013-08-26 22:45:00,
2013-08-26 19:00:00,77.6,63.0,30.11,South,183,0.0,0.0,62,0.00,,,0.00,weatherlink.com 1.10,2013-08-26 23:00:00,
2013-08-26 19:15:00,76.8,64.0,30.11,South,183,0.0,0.0,65,0.00,,,0.00,weatherlink.com 1.10,2013-08-26 23:15:00,
2013-08-26 19:30:00,76.0,64.0,30.11,South,183,0.0,0.0,66,0.00,,,0.00,weatherlink.com 1.10,2013-08-26 23:30:00,
2013-08-26 19:45:00,74.9,64.0,30.11,South,183,0.0,0.0,68,0.00,,,0.00,weatherlink.com 1.10,2013-08-26 23:45:00,
2013-08-26 20:00:00,73.7,64.0,30.11,South,183,0.0,0.0,72,0.00,,,0.00,weatherlink.com 1.10,2013-08-27 00:00:00,
2013-08-26 20:15:00,72.7,64.0,30.11,South,183,0.0,0.0,73,0.00,,,0.00,weatherlink.com 1.10,2013-08-27 00:15:00,
2013-08-26 20:30:00,71.6,64.0,30.10,South,183,0.0,0.0,77,0.00,,,0.00,weatherlink.com 1.10,2013-08-27 00:30:00,
2013-08-26 20:45:00,70.4,64.0,30.10,South,183,0.0,0.0,80,0.00,,,0.00,weatherlink.com 1.10,2013-08-27 00:45:00,
2013-08-26 21:00:00,69.6,64.0,30.11,South,183,0.0,0.0,81,0.00,,,0.00,weatherlink.com 1.10,2013-08-27 01:00:00,
2013-08-26 21:15:00,68.9,63.0,30.11,South,183,0.0,0.0,82,0.00,,,0.00,weatherlink.com 1.10,2013-08-27 01:15:00,
2013-08-26 21:30:00,68.4,63.0,30.11,South,183,0.0,0.0,84,0.00,,,0.00,weatherlink.com 1.10,2013-08-27 01:30:00,
2013-08-26 21:45:00,68.1,64.0,30.12,South,183,0.0,0.0,85,0.00,,,0.00,weatherlink.com 1.10,2013-08-27 01:45:00,
2013-08-26 22:00:00,67.6,63.0,30.12,South,183,0.0,0.0,86,0.00,,,0.00,weatherlink.com 1.10,2013-08-27 02:00:00,
2013-08-26 22:15:00,67.1,63.0,30.12,South,183,0.0,0.0,87,0.00,,,0.00,weatherlink.com 1.10,2013-08-27 02:15:00,
2013-08-26 22:30:00,66.8,63.0,30.12,South,183,0.0,0.0,88,0.00,,,0.00,weatherlink.com 1.10,2013-08-27 02:30:00,
2013-08-26 22:45:00,66.4,63.0,30.12,South,183,0.0,0.0,89,0.00,,,0.00,weatherlink.com 1.10,2013-08-27 02:45:00,
2013-08-26 23:00:00,66.1,63.0,30.12,South,183,0.0,0.0,89,0.00,,,0.00,weatherlink.com 1.10,2013-08-27 03:00:00,
2013-08-26 23:15:00,65.8,63.0,30.12,South,183,0.0,0.0,90,0.00,,,0.00,weatherlink.com 1.10,2013-08-27 03:15:00,
2013-08-26 23:30:00,65.5,63.0,30.12,South,183,0.0,0.0,90,0.00,,,0.00,weatherlink.com 1.10,2013-08-27 03:30:00,
2013-08-26 23:45:00,65.3,63.0,30.12,South,183,0.0,0.0,91,0.00,,,0.00,weatherlink.com 1.10,2013-08-27 03:45:00,